| time (UTC) | temp C | wind direction | speed KPH | gust KPH | rain 1hr cm | rain 24hr cm | rain mn cm | humidity % | barometer mb |
| 20260506234231 | 7 | 313 | 3.2 | 6.4 | 0.00 | 0.18 | 0.00 | 89 | 1010.5 |
| 20260506233732 | 7 | 320 | 3.2 | 6.4 | 0.00 | 0.18 | 0.00 | 89 | 1010.5 |
| 20260506232732 | 7 | 319 | 3.2 | 6.4 | 0.00 | 0.18 | 0.00 | 89 | 1010.5 |
| 20260506232231 | 7 | 309 | 3.2 | 6.4 | 0.00 | 0.18 | 0.00 | 89 | 1010.5 |
| 20260506231732 | 7 | 313 | 3.2 | 14.5 | 0.00 | 0.18 | 0.00 | 89 | 1010.4 |
| 20260506231231 | 7 | 271 | 4.8 | 14.5 | 0.00 | 0.18 | 0.00 | 89 | 1010.4 |
| 20260506230732 | 7 | 355 | 3.2 | 12.9 | 0.00 | 0.18 | 0.00 | 89 | 1010.5 |
| 20260506224732 | 8 | 309 | 3.2 | 11.3 | 0.00 | 0.18 | 0.00 | 89 | 1010.4 |
| 20260506224233 | 8 | 325 | 3.2 | 11.3 | 0.00 | 0.18 | 0.00 | 89 | 1010.4 |
| 20260506223732 | 8 | 306 | 3.2 | 8.0 | 0.00 | 0.18 | 0.00 | 89 | 1010.4 |
| 20260506223233 | 8 | 313 | 3.2 | 8.0 | 0.00 | 0.18 | 0.00 | 89 | 1010.4 |
| 20260506222732 | 8 | 311 | 3.2 | 6.4 | 0.00 | 0.18 | 0.00 | 89 | 1010.3 |
| 20260506222233 | 8 | 304 | 3.2 | 6.4 | 0.00 | 0.18 | 0.00 | 89 | 1010.3 |
| 20260506221731 | 8 | 315 | 3.2 | 6.4 | 0.00 | 0.18 | 0.00 | 89 | 1010.2 |
| 20260506221234 | 8 | 308 | 3.2 | 6.4 | 0.00 | 0.18 | 0.00 | 89 | 1010.2 |
| 20260506220731 | 8 | 313 | 1.6 | 4.8 | 0.00 | 0.18 | 0.00 | 89 | 1010.1 |
| 20260506220232 | 8 | 307 | 1.6 | 4.8 | 0.00 | 0.18 | 0.00 | 89 | 1010.0 |
| 20260506215731 | 8 | 300 | 1.6 | 3.2 | 0.00 | 0.18 | 0.18 | 89 | 1010.0 |
| 20260506215232 | 8 | 286 | 1.6 | 3.2 | 0.00 | 0.18 | 0.18 | 89 | 1010.0 |
| 20260506214231 | 8 | 281 | 1.6 | 3.2 | 0.00 | 0.18 | 0.18 | 88 | 1009.9 |
| 20260506213731 | 8 | 321 | 1.6 | 4.8 | 0.00 | 0.18 | 0.18 | 88 | 1009.8 |
| 20260506213232 | 8 | 326 | 3.2 | 11.3 | 0.00 | 0.18 | 0.18 | 88 | 1009.8 |
| 20260506212731 | 8 | 309 | 3.2 | 11.3 | 0.00 | 0.18 | 0.18 | 88 | 1009.7 |
| 20260506212231 | 8 | 320 | 3.2 | 6.4 | 0.00 | 0.18 | 0.18 | 89 | 1009.6 |
| 20260506211732 | 8 | 320 | 1.6 | 4.8 | 0.00 | 0.18 | 0.18 | 89 | 1009.7 |
| 20260506211232 | 8 | 301 | 1.6 | 3.2 | 0.00 | 0.18 | 0.18 | 89 | 1009.6 |
| 20260506210731 | 8 | 317 | 1.6 | 3.2 | 0.00 | 0.18 | 0.18 | 89 | 1009.6 |
| 20260506210232 | 8 | 316 | 0.0 | 3.2 | 0.00 | 0.18 | 0.18 | 89 | 1009.6 |
| 20260506205231 | 8 | 316 | 1.6 | 3.2 | 0.00 | 0.18 | 0.18 | 88 | 1009.5 |
| 20260506204231 | 8 | 315 | 0.0 | 3.2 | 0.00 | 0.25 | 0.18 | 88 | 1009.6 |
| 20260506203731 | 8 | 315 | 1.6 | 3.2 | 0.00 | 0.25 | 0.18 | 88 | 1009.5 |
| 20260506203231 | 8 | 315 | 1.6 | 3.2 | 0.00 | 0.25 | 0.18 | 88 | 1009.4 |
| 20260506202731 | 8 | 317 | 3.2 | 8.0 | 0.00 | 0.25 | 0.18 | 88 | 1009.4 |
| 20260506202231 | 8 | 311 | 3.2 | 8.0 | 0.00 | 0.25 | 0.18 | 87 | 1009.3 |
| 20260506201731 | 9 | 266 | 3.2 | 6.4 | 0.00 | 0.30 | 0.18 | 87 | 1009.4 |
| 20260506201231 | 9 | 315 | 3.2 | 6.4 | 0.00 | 0.33 | 0.18 | 87 | 1009.3 |
| 20260506200731 | 9 | 319 | 3.2 | 8.0 | 0.00 | 0.36 | 0.18 | 87 | 1009.3 |
| 20260506200231 | 9 | 261 | 3.2 | 8.0 | 0.00 | 0.41 | 0.18 | 87 | 1009.2 |
| 20260506195730 | 9 | 309 | 3.2 | 6.4 | 0.00 | 0.43 | 0.18 | 87 | 1009.2 |
| 20260506194732 | 9 | 325 | 1.6 | 4.8 | 0.00 | 0.53 | 0.18 | 87 | 1009.1 |
| 20260506194232 | 9 | 331 | 3.2 | 6.4 | 0.00 | 0.56 | 0.18 | 87 | 1008.9 |
| 20260506193731 | 9 | 318 | 3.2 | 6.4 | 0.00 | 0.58 | 0.18 | 87 | 1008.9 |
| 20260506193232 | 9 | 327 | 4.8 | 12.9 | 0.00 | 0.61 | 0.18 | 87 | 1008.8 |
| 20260506192731 | 9 | 324 | 4.8 | 12.9 | 0.00 | 0.61 | 0.18 | 87 | 1008.6 |
| 20260506192233 | 9 | 312 | 4.8 | 11.3 | 0.00 | 0.61 | 0.18 | 86 | 1008.6 |
| 20260506191731 | 9 | 306 | 3.2 | 8.0 | 0.00 | 0.61 | 0.18 | 87 | 1008.5 |
| 20260506191231 | 9 | 319 | 3.2 | 11.3 | 0.00 | 0.61 | 0.18 | 87 | 1008.5 |
| 20260506190734 | 9 | 340 | 3.2 | 11.3 | 0.00 | 0.61 | 0.18 | 87 | 1008.4 |
| 20260506190231 | 9 | 311 | 3.2 | 6.4 | 0.00 | 0.64 | 0.18 | 87 | 1008.4 |
| 20260506185733 | 9 | 315 | 3.2 | 8.0 | 0.00 | 0.64 | 0.18 | 86 | 1008.3 |
| 20260506185231 | 10 | 315 | 3.2 | 8.0 | 0.00 | 0.66 | 0.18 | 86 | 1008.3 |
| 20260506184733 | 10 | 317 | 3.2 | 8.0 | 0.00 | 0.66 | 0.18 | 86 | 1008.2 |
| 20260506184230 | 10 | 315 | 4.8 | 8.0 | 0.00 | 0.66 | 0.18 | 86 | 1008.2 |
| 20260506183733 | 10 | 311 | 3.2 | 9.7 | 0.00 | 0.66 | 0.18 | 86 | 1008.1 |
| 20260506183231 | 10 | 324 | 4.8 | 16.1 | 0.00 | 0.69 | 0.18 | 86 | 1008.1 |
| 20260506182733 | 10 | 319 | 3.2 | 16.1 | 0.00 | 0.69 | 0.18 | 86 | 1008.1 |
| 20260506182231 | 10 | 289 | 3.2 | 9.7 | 0.00 | 0.69 | 0.18 | 86 | 1008.0 |
| 20260506181733 | 10 | 38 | 3.2 | 8.0 | 0.00 | 0.71 | 0.18 | 86 | 1007.9 |
| 20260506181231 | 10 | 288 | 1.6 | 6.4 | 0.00 | 0.71 | 0.18 | 86 | 1007.8 |
| 20260506180733 | 10 | 315 | 3.2 | 11.3 | 0.00 | 0.71 | 0.18 | 86 | 1007.8 |
| 20260506175733 | 10 | 309 | 4.8 | 11.3 | 0.00 | 0.71 | 0.18 | 86 | 1007.7 |
| 20260506173231 | 10 | 247 | 6.4 | 19.3 | 0.00 | 0.74 | 0.18 | 87 | 1007.6 |
| 20260506172733 | 10 | 328 | 6.4 | 19.3 | 0.00 | 0.74 | 0.18 | 86 | 1007.5 |
| 20260506172231 | 10 | 331 | 4.8 | 16.1 | 0.00 | 0.74 | 0.18 | 87 | 1007.5 |
| 20260506171231 | 11 | 323 | 4.8 | 12.9 | 0.00 | 0.74 | 0.18 | 87 | 1007.4 |
| 20260506170733 | 11 | 336 | 4.8 | 12.9 | 0.00 | 0.74 | 0.18 | 87 | 1007.4 |
| 20260506170231 | 11 | 319 | 4.8 | 12.9 | 0.00 | 0.74 | 0.18 | 87 | 1007.4 |
| 20260506165733 | 11 | 350 | 3.2 | 12.9 | 0.00 | 0.74 | 0.18 | 87 | 1007.4 |
| 20260506165231 | 10 | 338 | 4.8 | 12.9 | 0.00 | 0.74 | 0.18 | 87 | 1007.4 |
| 20260506164734 | 10 | 315 | 4.8 | 14.5 | 0.00 | 0.74 | 0.18 | 87 | 1007.4 |
| 20260506163733 | 10 | 309 | 4.8 | 11.3 | 0.00 | 0.74 | 0.18 | 87 | 1007.4 |
| 20260506163231 | 11 | 284 | 4.8 | 16.1 | 0.00 | 0.74 | 0.18 | 86 | 1007.4 |
| 20260506162734 | 11 | 328 | 4.8 | 16.1 | 0.00 | 0.74 | 0.18 | 86 | 1007.4 |
| 20260506162231 | 11 | 318 | 4.8 | 12.9 | 0.00 | 0.74 | 0.18 | 86 | 1007.3 |
| 20260506161231 | 11 | 300 | 4.8 | 14.5 | 0.00 | 0.74 | 0.18 | 85 | 1007.3 |
| 20260506160731 | 11 | 302 | 4.8 | 14.5 | 0.00 | 0.76 | 0.18 | 85 | 1007.3 |
| 20260506155731 | 11 | 316 | 3.2 | 9.7 | 0.00 | 0.76 | 0.18 | 85 | 1007.2 |
| 20260506154732 | 11 | 292 | 4.8 | 16.1 | 0.00 | 0.76 | 0.18 | 85 | 1007.2 |
| 20260506154229 | 11 | 319 | 4.8 | 14.5 | 0.00 | 0.79 | 0.18 | 86 | 1007.2 |
| 20260506153729 | 11 | 322 | 6.4 | 16.1 | 0.00 | 0.79 | 0.18 | 85 | 1007.1 |
| 20260506152712 | 12 | 5 | 4.8 | 11.3 | 0.00 | 0.79 | 0.18 | 84 | 1007.0 |
| 20260506152209 | 12 | 338 | 3.2 | 11.3 | 0.00 | 0.79 | 0.18 | 85 | 1006.9 |
| 20260506151712 | 12 | 276 | 4.8 | 12.9 | 0.00 | 0.79 | 0.18 | 86 | 1006.9 |
| 20260506151209 | 11 | 323 | 6.4 | 17.7 | 0.00 | 0.81 | 0.18 | 86 | 1006.9 |
| 20260506150209 | 12 | 347 | 6.4 | 16.1 | 0.00 | 0.81 | 0.18 | 84 | 1006.9 |
| 20260506145709 | 12 | 319 | 6.4 | 16.1 | 0.00 | 0.81 | 0.18 | 85 | 1006.7 |
| 20260506145208 | 12 | 340 | 6.4 | 16.1 | 0.00 | 0.84 | 0.18 | 87 | 1006.7 |
| 20260506144708 | 12 | 306 | 6.4 | 19.3 | 0.00 | 0.84 | 0.18 | 88 | 1006.6 |
| 20260506144206 | 12 | 309 | 4.8 | 19.3 | 0.00 | 0.84 | 0.18 | 89 | 1006.6 |
| 20260506143206 | 11 | 328 | 4.8 | 14.5 | 0.00 | 0.84 | 0.18 | 90 | 1006.7 |
| 20260506142706 | 11 | 248 | 4.8 | 14.5 | 0.00 | 0.86 | 0.18 | 90 | 1006.7 |
| 20260506141706 | 11 | 316 | 3.2 | 8.0 | 0.00 | 0.86 | 0.18 | 91 | 1006.9 |
| 20260506141206 | 10 | 337 | 4.8 | 8.0 | 0.00 | 0.86 | 0.18 | 91 | 1006.8 |
| 20260506140706 | 10 | 313 | 4.8 | 8.0 | 0.00 | 0.86 | 0.18 | 91 | 1006.9 |
| 20260506140206 | 10 | 355 | 3.2 | 8.0 | 0.00 | 0.86 | 0.18 | 91 | 1006.9 |
| 20260506135704 | 10 | 307 | 3.2 | 8.0 | 0.00 | 0.86 | 0.18 | 91 | 1006.9 |
| 20260506134704 | 11 | 291 | 4.8 | 12.9 | 0.00 | 0.89 | 0.18 | 91 | 1006.9 |
| 20260506134204 | 11 | 328 | 3.2 | 11.3 | 0.00 | 0.89 | 0.18 | 91 | 1006.9 |
| 20260506133707 | 11 | 252 | 3.2 | 8.0 | 0.00 | 0.89 | 0.18 | 91 | 1006.9 |
| 20260506133205 | 11 | 320 | 3.2 | 8.0 | 0.00 | 0.89 | 0.18 | 91 | 1006.9 |
| 20260506132707 | 11 | 323 | 3.2 | 6.4 | 0.00 | 0.89 | 0.18 | 91 | 1006.9 |
| 20260506132202 | 11 | 327 | 3.2 | 9.7 | 0.00 | 0.89 | 0.18 | 91 | 1006.9 |
| 20260506131202 | 10 | 309 | 4.8 | 12.9 | 0.00 | 0.91 | 0.18 | 91 | 1006.8 |
| 20260506130704 | 11 | 256 | 4.8 | 12.9 | 0.00 | 0.94 | 0.18 | 91 | 1006.7 |
| 20260506130201 | 11 | 304 | 4.8 | 11.3 | 0.00 | 0.97 | 0.18 | 91 | 1006.7 |
| 20260506125703 | 11 | 328 | 4.8 | 14.5 | 0.00 | 0.99 | 0.18 | 91 | 1006.7 |
| 20260506125202 | 11 | 318 | 3.2 | 14.5 | 0.00 | 0.99 | 0.18 | 91 | 1006.6 |
| 20260506124704 | 11 | 314 | 3.2 | 9.7 | 0.00 | 0.99 | 0.18 | 91 | 1006.6 |
| 20260506124202 | 11 | 355 | 4.8 | 11.3 | 0.00 | 0.99 | 0.18 | 91 | 1006.5 |
| 20260506123702 | 11 | 309 | 4.8 | 11.3 | 0.00 | 1.02 | 0.18 | 91 | 1006.5 |
| 20260506123201 | 11 | 318 | 4.8 | 12.9 | 0.00 | 1.02 | 0.18 | 91 | 1006.4 |
| 20260506122702 | 11 | 321 | 6.4 | 14.5 | 0.00 | 1.02 | 0.18 | 90 | 1006.4 |
| 20260506122203 | 11 | 340 | 4.8 | 14.5 | 0.00 | 1.04 | 0.18 | 90 | 1006.3 |
| 20260506121201 | 11 | 273 | 3.2 | 11.3 | 0.00 | 1.09 | 0.18 | 90 | 1006.3 |
| 20260506120702 | 11 | 329 | 4.8 | 11.3 | 0.00 | 1.12 | 0.18 | 90 | 1006.2 |
| 20260506120202 | 11 | 351 | 4.8 | 11.3 | 0.00 | 1.12 | 0.18 | 90 | 1006.2 |
| 20260506115702 | 11 | 315 | 4.8 | 12.9 | 0.00 | 1.12 | 0.18 | 90 | 1006.2 |
| 20260506115202 | 11 | 311 | 3.2 | 12.9 | 0.00 | 1.12 | 0.18 | 90 | 1006.1 |
| 20260506114702 | 11 | 286 | 3.2 | 8.0 | 0.00 | 1.12 | 0.18 | 90 | 1006.1 |
| 20260506113702 | 11 | 323 | 3.2 | 11.3 | 0.00 | 1.12 | 0.18 | 90 | 1006.0 |
| 20260506113202 | 11 | 296 | 4.8 | 12.9 | 0.00 | 1.12 | 0.18 | 90 | 1006.0 |
| 20260506112702 | 11 | 286 | 4.8 | 12.9 | 0.00 | 1.12 | 0.18 | 90 | 1005.9 |
| 20260506111702 | 11 | 308 | 3.2 | 9.7 | 0.00 | 1.12 | 0.18 | 91 | 1005.9 |
| 20260506111201 | 11 | 355 | 3.2 | 9.7 | 0.00 | 1.12 | 0.18 | 91 | 1005.8 |
| 20260506110702 | 11 | 333 | 4.8 | 11.3 | 0.00 | 1.12 | 0.18 | 91 | 1005.8 |
| 20260506105702 | 11 | 342 | 4.8 | 12.9 | 0.00 | 1.12 | 0.18 | 92 | 1005.8 |
| 20260506105202 | 11 | 324 | 3.2 | 11.3 | 0.00 | 1.12 | 0.18 | 92 | 1005.7 |
| 20260506104702 | 11 | 335 | 3.2 | 11.3 | 0.00 | 1.12 | 0.18 | 92 | 1005.7 |
| 20260506104202 | 11 | 296 | 4.8 | 12.9 | 0.00 | 1.12 | 0.18 | 92 | 1005.7 |
| 20260506103702 | 11 | 321 | 4.8 | 12.9 | 0.00 | 1.12 | 0.18 | 92 | 1005.7 |
| 20260506102202 | 11 | 321 | 4.8 | 9.7 | 0.00 | 1.12 | 0.18 | 92 | 1005.6 |
| 20260506101702 | 11 | 324 | 3.2 | 9.7 | 0.00 | 1.12 | 0.18 | 93 | 1005.5 |
| 20260506101202 | 11 | 313 | 3.2 | 9.7 | 0.00 | 1.12 | 0.18 | 93 | 1005.5 |
| 20260506100702 | 11 | 325 | 3.2 | 11.3 | 0.00 | 1.12 | 0.18 | 93 | 1005.5 |
| 20260506100202 | 11 | 314 | 4.8 | 12.9 | 0.00 | 1.12 | 0.18 | 93 | 1005.5 |
| 20260506095702 | 11 | 274 | 4.8 | 12.9 | 0.00 | 1.12 | 0.18 | 93 | 1005.3 |
| 20260506095202 | 11 | 325 | 3.2 | 11.3 | 0.00 | 1.12 | 0.18 | 93 | 1005.3 |
| 20260506094702 | 11 | 306 | 3.2 | 11.3 | 0.00 | 1.12 | 0.18 | 93 | 1005.5 |
| 20260506094202 | 11 | 355 | 3.2 | 9.7 | 0.00 | 1.12 | 0.18 | 93 | 1005.3 |
| 20260506093702 | 11 | 320 | 3.2 | 11.3 | 0.00 | 1.12 | 0.18 | 93 | 1005.2 |
| 20260506093202 | 11 | 325 | 4.8 | 11.3 | 0.00 | 1.12 | 0.18 | 93 | 1005.2 |
| 20260506092702 | 11 | 254 | 3.2 | 11.3 | 0.00 | 1.12 | 0.18 | 93 | 1005.1 |
| 20260506091204 | 11 | 279 | 4.8 | 11.3 | 0.00 | 1.12 | 0.18 | 93 | 1005.1 |
| 20260506090702 | 10 | 279 | 4.8 | 12.9 | 0.00 | 1.12 | 0.18 | 93 | 1005.1 |
| 20260506090204 | 10 | 313 | 3.2 | 12.9 | 0.00 | 1.12 | 0.18 | 93 | 1005.1 |
| 20260506085703 | 11 | 277 | 3.2 | 9.7 | 0.00 | 1.12 | 0.18 | 93 | 1005.0 |
| 20260506085205 | 11 | 238 | 3.2 | 11.3 | 0.00 | 1.12 | 0.18 | 93 | 1004.9 |
| 20260506084701 | 11 | 319 | 4.8 | 11.3 | 0.00 | 1.12 | 0.18 | 93 | 1004.9 |
| 20260506083703 | 11 | 323 | 3.2 | 11.3 | 0.00 | 1.12 | 0.18 | 93 | 1004.7 |
| 20260506083204 | 11 | 38 | 3.2 | 12.9 | 0.00 | 1.12 | 0.18 | 93 | 1004.7 |
| 20260506082700 | 11 | 315 | 3.2 | 12.9 | 0.00 | 1.12 | 0.18 | 93 | 1004.6 |
| 20260506082200 | 11 | 231 | 3.2 | 8.0 | 0.00 | 1.12 | 0.18 | 93 | 1004.7 |
| 20260506081658 | 11 | 296 | 4.8 | 8.0 | 0.03 | 1.12 | 0.18 | 93 | 1004.6 |
| 20260506081157 | 11 | 314 | 3.2 | 8.0 | 0.03 | 1.12 | 0.18 | 93 | 1004.6 |
| 20260506080156 | 11 | 319 | 3.2 | 11.3 | 0.03 | 1.12 | 0.18 | 93 | 1004.6 |
| 20260506072653 | 10 | 307 | 3.2 | 8.0 | 0.05 | 1.12 | 0.18 | 93 | 1004.6 |
| 20260506072153 | 10 | 314 | 3.2 | 8.0 | 0.05 | 1.12 | 0.18 | 93 | 1004.6 |
| 20260506071654 | 10 | 312 | 1.6 | 8.0 | 0.05 | 1.09 | 0.15 | 93 | 1004.6 |
| 20260506071157 | 10 | 311 | 3.2 | 6.4 | 0.05 | 1.09 | 0.15 | 93 | 1004.5 |
| 20260506070654 | 10 | 298 | 3.2 | 6.4 | 0.05 | 1.09 | 0.15 | 94 | 1004.5 |
| 20260506070154 | 10 | 331 | 3.2 | 8.0 | 0.05 | 1.09 | 0.15 | 93 | 1004.5 |
| 20260506062148 | 10 | 306 | 3.2 | 6.4 | 0.10 | 1.07 | 0.13 | 93 | 1004.2 |
| 20260506061648 | 10 | 306 | 3.2 | 9.7 | 0.10 | 1.07 | 0.13 | 93 | 1004.1 |
| 20260506061148 | 10 | 325 | 3.2 | 9.7 | 0.08 | 1.04 | 0.10 | 93 | 1004.1 |
| 20260506060648 | 10 | 323 | 1.6 | 8.0 | 0.10 | 1.04 | 0.10 | 93 | 1004.1 |
| 20260506050140 | 11 | 219 | 0.0 | 0.0 | 0.00 | 0.94 | 0.00 | 93 | 1003.8 |
| 20260506045130 | 11 | 219 | 0.0 | 1.6 | 0.00 | 0.94 | 0.00 | 93 | 1003.8 |
| 20260506044131 | 11 | 219 | 0.0 | 3.2 | 0.00 | 0.94 | 0.00 | 93 | 1003.8 |
| 20260506043631 | 11 | 182 | 0.0 | 0.0 | 0.00 | 0.94 | 0.00 | 93 | 1003.9 |
| 20260506043131 | 11 | 182 | 0.0 | 0.0 | 0.00 | 0.94 | 0.00 | 93 | 1003.8 |
| 20260506042631 | 11 | 182 | 0.0 | 0.0 | 0.00 | 0.94 | 0.00 | 93 | 1003.9 |
| 20260506042131 | 11 | 182 | 0.0 | 1.6 | 0.00 | 0.94 | 0.00 | 93 | 1003.9 |
| 20260506041631 | 11 | 182 | 0.0 | 3.2 | 0.00 | 0.94 | 0.00 | 93 | 1003.9 |
| 20260506040631 | 11 | 182 | 0.0 | 3.2 | 0.00 | 0.94 | 0.00 | 93 | 1004.0 |
| 20260506040131 | 11 | 183 | 1.6 | 3.2 | 0.00 | 0.94 | 0.00 | 93 | 1004.0 |
| 20260506035630 | 11 | 183 | 1.6 | 3.2 | 0.00 | 0.94 | 0.00 | 93 | 1004.0 |
| 20260506035131 | 11 | 183 | 1.6 | 6.4 | 0.00 | 0.94 | 0.00 | 93 | 1004.1 |
| 20260506034633 | 11 | 184 | 1.6 | 6.4 | 0.00 | 0.94 | 0.00 | 93 | 1004.2 |
| 20260506034131 | 11 | 176 | 1.6 | 4.8 | 0.00 | 0.94 | 0.00 | 93 | 1004.2 |
| 20260506033634 | 11 | 178 | 1.6 | 6.4 | 0.00 | 0.94 | 0.00 | 93 | 1004.2 |
| 20260506033131 | 11 | 162 | 1.6 | 6.4 | 0.00 | 0.94 | 0.00 | 93 | 1004.3 |
| 20260506032131 | 11 | 181 | 3.2 | 9.7 | 0.00 | 0.94 | 0.00 | 93 | 1004.2 |
| 20260506031634 | 11 | 194 | 3.2 | 8.0 | 0.00 | 0.94 | 0.00 | 93 | 1004.3 |
| 20260506031131 | 11 | 148 | 3.2 | 8.0 | 0.00 | 0.94 | 0.00 | 93 | 1004.3 |
| 20260506030131 | 11 | 171 | 3.2 | 8.0 | 0.00 | 0.94 | 0.00 | 93 | 1004.3 |
| 20260506025631 | 11 | 163 | 3.2 | 8.0 | 0.00 | 0.94 | 0.00 | 93 | 1004.3 |
| 20260506024632 | 11 | 158 | 3.2 | 11.3 | 0.00 | 0.94 | 0.00 | 93 | 1004.3 |
| 20260506024131 | 11 | 192 | 3.2 | 8.0 | 0.00 | 0.94 | 0.00 | 93 | 1004.3 |
| 20260506023633 | 11 | 171 | 3.2 | 8.0 | 0.00 | 0.94 | 0.00 | 93 | 1004.3 |
| 20260506023131 | 11 | 155 | 1.6 | 6.4 | 0.00 | 0.94 | 0.00 | 93 | 1004.3 |
| 20260506022632 | 11 | 189 | 1.6 | 6.4 | 0.00 | 0.94 | 0.00 | 93 | 1004.3 |
| 20260506022128 | 11 | 184 | 3.2 | 6.4 | 0.00 | 0.94 | 0.00 | 93 | 1004.3 |
| 20260506021117 | 11 | 186 | 3.2 | 9.7 | 0.00 | 0.94 | 0.00 | 93 | 1004.3 |
| 20260506020613 | 11 | 171 | 3.2 | 9.7 | 0.00 | 0.94 | 0.00 | 93 | 1004.3 |
| 20260506020107 | 11 | 179 | 3.2 | 8.0 | 0.00 | 0.94 | 0.00 | 93 | 1004.3 |
| 20260506015608 | 11 | 193 | 3.2 | 8.0 | 0.00 | 0.94 | 0.00 | 93 | 1004.4 |
| 20260506015107 | 11 | 178 | 3.2 | 9.7 | 0.00 | 0.94 | 0.00 | 93 | 1004.4 |
| 20260506014607 | 11 | 202 | 3.2 | 9.7 | 0.00 | 0.94 | 0.00 | 93 | 1004.5 |
| 20260506014107 | 11 | 167 | 4.8 | 12.9 | 0.00 | 0.94 | 0.00 | 93 | 1004.5 |
| 20260506013605 | 11 | 137 | 4.8 | 12.9 | 0.00 | 0.94 | 0.00 | 93 | 1004.6 |
| 20260506013105 | 11 | 192 | 4.8 | 12.9 | 0.00 | 0.94 | 0.00 | 93 | 1004.6 |
| 20260506012605 | 11 | 167 | 4.8 | 12.9 | 0.00 | 0.94 | 0.00 | 93 | 1004.6 |
| 20260506012104 | 11 | 173 | 4.8 | 9.7 | 0.00 | 0.94 | 0.00 | 93 | 1004.6 |
| 20260506011608 | 11 | 196 | 4.8 | 11.3 | 0.00 | 0.94 | 0.00 | 93 | 1004.6 |
| 20260506011105 | 11 | 172 | 4.8 | 11.3 | 0.00 | 0.94 | 0.00 | 93 | 1004.6 |
| 20260506010607 | 11 | 186 | 3.2 | 9.7 | 0.00 | 0.94 | 0.00 | 93 | 1004.7 |
| 20260506010104 | 11 | 167 | 3.2 | 9.7 | 0.00 | 0.94 | 0.00 | 93 | 1004.7 |
| 20260506005607 | 11 | 171 | 3.2 | 9.7 | 0.00 | 0.94 | 0.00 | 93 | 1004.7 |
| 20260506005102 | 11 | 157 | 3.2 | 8.0 | 0.00 | 0.94 | 0.00 | 93 | 1004.8 |
| 20260506004604 | 11 | 196 | 3.2 | 9.7 | 0.00 | 0.94 | 0.00 | 93 | 1004.7 |
| 20260506004102 | 11 | 171 | 3.2 | 9.7 | 0.00 | 0.94 | 0.00 | 93 | 1004.8 |
| 20260506003600 | 11 | 182 | 3.2 | 9.7 | 0.00 | 0.94 | 0.00 | 93 | 1004.9 |
| 20260506003055 | 11 | 175 | 3.2 | 14.5 | 0.00 | 0.94 | 0.00 | 93 | 1004.9 |
| 20260506002548 | 11 | 170 | 3.2 | 14.5 | 0.00 | 0.94 | 0.00 | 93 | 1004.9 |
| 20260506002049 | 11 | 187 | 4.8 | 14.5 | 0.00 | 0.94 | 0.00 | 93 | 1004.8 |
| 20260506001047 | 11 | 242 | 3.2 | 9.7 | 0.00 | 0.94 | 0.00 | 93 | 1005.0 |
| 20260506000047 | 11 | 171 | 4.8 | 11.3 | 0.00 | 0.94 | 0.00 | 93 | 1005.0 |
| 20260505235546 | 11 | 202 | 3.2 | 11.3 | 0.00 | 0.94 | 0.00 | 93 | 1005.1 |
| 20260505235047 | 11 | 163 | 3.2 | 9.7 | 0.00 | 0.94 | 0.00 | 93 | 1005.1 |
| 20260505234548 | 11 | 178 | 3.2 | 8.0 | 0.00 | 0.94 | 0.00 | 93 | 1005.2 |